Terug naar catalogus

AEROCUBE 6B

ActiefWetenschapSSO
NORAD 40046·PAYLOAD·🇺🇸 United States

Gelanceerd Jun 19, 2014 vanaf Dombarovsky

Loading…

Volgende Passages (komende 24 uur)

TLE

VersSource: Space-Track

Epoch: Sep 14, 2026, 10:00 UTC

1 40046U 14033AN  26257.41669221  .00005206  00000-0  41139-3 0  9992
2 40046  97.7339  63.4723 0041235  60.3964 300.1359 15.00431067660136

Volg AEROCUBE 6B in realtime met AllMySat

Download on the App Store